Location: Barrio de Canyet
(41.4665°N, 2.2381°E)
Time: 21:04:08
(UTC+00:00)

Hubble Space Telescope - Pass Details

Date: 09 April 2020
Orbit: 536 x 540 km, 28.5° (Epoch: 31 May)

Event Time Altitude Azimuth Distance (km) Brightness Sun altitude
Rises 18:52:44 0° 224° (SW) 2,664 4.7 -5.8°
Reaches altitude 10° 18:56:29 10° 189° (S) 1,775 3.3 -6.5°
Maximum altitude 18:57:46 11° 171° (S) 1,695 3.1 -6.7°
Drops below altitude 10° 18:59:04 10° 152° (SSE) 1,776 3.0 -6.9°
Enters shadow 19:00:38 - 134° (SE) 2,061 3.2 -7.2°
